Location: Proctor
(47.8934°N, 114.3048°W)
Time: 07:28:16
(UTC+00:00)

Tiangong - Visible Passes

Search period start: 18 May 2024 00:00
Search period end: 28 May 2024 00:00
Orbit: 372 x 376 km, 41.5° (Epoch: 17 May)

Date Brightness Start Highest point End Pass type
(mag) Time Alt. Az. Time Alt. Az. Time Alt. Az.
23 May 0.3 10:41:08 10° SSE 10:41:45 10° SSE 10:42:21 10° SE visible
25 May 0.0 10:10:34 13° SSE 10:10:56 14° SSE 10:12:35 10° SE visible
26 May -0.6 10:41:31 13° SSW 10:43:20 21° S 10:45:46 10° ESE visible
27 May -0.1 09:40:26 16° SE 09:40:26 16° SE 09:41:49 10° ESE visible
